User: anonymous   Login
Location: Unspecified
(0.0000°N, 0.0000°E)
Time: 12:08:57
(UTC+00:00)
Language:

NOSS 2-1 (C) - Orbit

View from above orbital plane
View from above orbital plane
View from above satellite
View from above satellite

Ground track
Ground track

The orbit data is extracted from the following two-line orbital elements,

1 20691U 90050C   17168.91062279 0.00000010  00000-0  25771-5 0    02
2 20691  63.3430 191.5077 0789000  31.7492 328.2508 13.41694157    08
Epoch (UTC): 17 June 2017 21:51:17
Eccentricity: 0.0789000
inclination: 63.3430°
perigee height: 513 km
apogee height: 1693 km
right ascension of ascending node: 191.5077°
argument of perigee: 31.7492°
revolutions per day: 13.41694157
mean anomaly at epoch: 328.2508°
orbit number at epoch: 0

The dashed part of the orbit path shows where the satellite is in the earth's shadow,  

DLR